Regional Weather Roundup
Issued by NWS Upton, NY

Current Version | Previous Version | Graphics & Text | Print | Product List | Glossary Off
Versions: 1 2 3 4 5 6 7 8 9 10 11 12 13 14 15 16 17 18 19 20 21 22 23 24 25 26 27

000
ASUS41 KOKX 240905
RWROKX

Regional Weather Roundup
National Weather Service New York NY
500 AM EDT TUE APR 24 2018

Note: "FAIR" indicates few or no clouds below 12,000 feet with no
significant weather and/or obstructions to visibility.

NYZ071-072-176-178-NJZ106-104-241000-
New York City Metro Area

CITY           SKY/WX    TMP DP  RH WIND       PRES   REMARKS
Central Park   FAIR      48  42  80 CALM      30.42S
Bronx Bot Gard   N/A     43  41  93 N1        30.42R
Bronx Lehman C   N/A     46  43  87 SE2         N/A
LaGuardia Arpt FAIR      47  42  83 SE5       30.40S
Queens College   N/A     45  43  93 SE3         N/A
Kennedy Intl   MOCLDY    43  42  97 E7        30.41F
Breezy Point     N/A     45 N/A N/A E5          N/A
Brooklyn Coll    N/A     46  43  87 E3          N/A
Staten Island    N/A     46  43  87 SE2         N/A
Newark/Liberty FAIR      48  41  76 CALM      30.40S
Teterboro      FAIR      44  37  76 CALM      30.39F
$$

NYZ177-179-078>081-241000-
Long Island New York

CITY           SKY/WX    TMP DP  RH WIND       PRES   REMARKS
Jones Beach      N/A     45 N/A N/A E2          N/A
Wantagh          N/A     39  37  93 NE3         N/A
Hempstead        N/A     43  41  93 SE1       30.43S
Matinecock Pt    N/A     43 N/A N/A E2          N/A
Farmingdale    FAIR      39  37  92 CALM      30.41S
MacArthur/ISP  FAIR      37  37 100 CALM      30.41S
Stony Brook      N/A     41  39  93 CALM        N/A
Shirley        FAIR      35  34  96 CALM      30.42S
Mt Sinai Harb    N/A    N/A N/A N/A MISG        N/A
Westhampton    FAIR      26  22  84 CALM      30.43F
East Hampton   FAIR      28  26  91 CALM      30.41F
Southold         N/A     39  39 100 CALM        N/A
Montauk          N/A     44  40  85 CALM      30.43F
$$

NYZ052-065-067-241000-
Hudson Valley

CITY           SKY/WX    TMP DP  RH WIND       PRES   REMARKS
White Plains   FAIR      39  36  89 CALM      30.39S
Larchmont Harb   N/A     41 N/A N/A N2          N/A
Croton On Huds   N/A     39 N/A N/A MISG        N/A
Somers           N/A     39  36  87 E2          N/A
Brewster         N/A     36  32  87 NW1         N/A
Newburgh       CLEAR     39  34  81 CALM      30.38F
Montgomery     FAIR      33  29  85 CALM      30.37S
Otisville        N/A     34  32  93 CALM        N/A
Warwick          N/A     36  32  87 S1          N/A
Suffern          N/A     41  37  87 CALM        N/A
Poughkeepsie   FAIR      35  30  82 CALM      30.38S
Albany         FAIR      46  25  43 S6        30.35F
$$

NJZ001-105-106-008-010-013-015-019>022-104-241000-
New Jersey

CITY           SKY/WX    TMP DP  RH WIND       PRES   REMARKS
Newark/Liberty FAIR      48  41  76 CALM      30.40S
Teterboro      FAIR      44  37  76 CALM      30.39F
Caldwell       FAIR      38  35  89 CALM      30.40F
Somerville     FAIR      33  33 100 CALM      30.38S
Linden         FAIR      44  41  87 CALM      30.40F
Perth Amboy      N/A     45 N/A N/A SE5         N/A
Sussex         FAIR      33  31  92 CALM      30.38F
Andover          N/A     37  33  85 CALM      30.38S
Trenton        FAIR      40  32  73 N3        30.38S
Millville      FAIR      36  33  89 NE3       30.36F
Atlantic City  FAIR      46  40  79 SE8       30.37F
Wrightstown    NOT AVBL
Toms River     FAIR      28  25  88 CALM      30.40S
Belmar         FAIR      40  40 100 E5        30.40
$$

PAZ047>061-062-071-241000-
Eastern Pennsylvania

CITY           SKY/WX    TMP DP  RH WIND       PRES   REMARKS
Philadelphia   MOCLDY    43  34  70 E5        30.38S
Allentown      FAIR      40  26  57 NE3       30.36F
Scranton       FAIR      48  22  35 VRB5      30.33F
$$

CTZ002-004>006-009-010-012-RIZ004-006-007-MAZ004-011-015-241000-
Southern New England

 In CT

CITY           SKY/WX    TMP DP  RH WIND       PRES   REMARKS
Bradley Intl   FAIR      39  33  79 S5        30.40S
Hartford       FAIR      40  34  79 CALM      30.41S
Danbury        FAIR      32  30  92 CALM      30.41S
Wtrbury/Oxford FAIR      39  36  89 CALM      30.40F
Norwalk Harbor   N/A     39 N/A N/A N3          N/A
Bridgeport     FAIR      40  37  89 CALM      30.41F
Meriden        FAIR      33  31  92 CALM      30.42S
New Haven      FAIR      35  32  88 CALM      30.41F
Chester        FAIR      37  36  93 CALM      30.41S
Groton         FAIR      34  34 100 N3        30.42F
Willimantic    FAIR      32  28  85 CALM      30.43S

 In RI

CITY           SKY/WX    TMP DP  RH WIND       PRES   REMARKS
Providence     FAIR      37  35  92 CALM      30.42F
Block Island   FAIR      43  38  82 S8        30.43F
Westerly       FOG       32  32 100 CALM      30.43F VSB 1/4

In MA

CITY           SKY/WX    TMP DP  RH WIND       PRES   REMARKS
Boston         FAIR      43  31  62 SW8       30.40F
Worcester      FAIR      41  26  55 W13       30.37S
Westfield      FAIR      34  29  82 CALM      30.39F
Provincetown   FAIR      42  37  82 S8        30.43S
Nantucket      FAIR      39  39 100 S5        30.44F
$$

ANZ330-335-338-340-345-350-353-355-241000-
Coastal Marine Observations


STATION/POSITION TIME  SKY/WX   TEMP    WIND        PRES    VSBY  WAVE
                                AIR SEA DIR/SP/G                  HT/PER
                 (UTC)          (F)     (DEG/KT/KT) (MB)    (MI)  (FT/S)
NY Harb Entrance 0850            46 46   50/  4/  4 1029.6          1/ 9
20 S Fire Island 0850            47 44  150/  8/  8 1029.6          1/14
23 SSW Montauk P 0850            45 44  170/  6/  6 1030.3          1/14
15 E Barnegat Li 0830               46                N/A           1/ 9
Hudson Canyon    0850            49 46  130/  8/ 10 1029.4          1/15
Kings Point      0842            44 47   CALM  /  1 1030.5
Execution Rocks  NOT AVBL
Western LI Sound NOT AVBL
Central LI Sound 0845            44      60/  2/  4   N/A           0
Robbins Reef     0848            47     170/  3/  4 1029.9
$$


>>>>>>>>>>>>>>>>>>>>>>>>>>>> KEY <<<<<<<<<<<<<<<<<<<<<<<<<<<
>                                                          <
>     SKY/WX - Sky Condition/Present Weather               <
>     TMP    - Temperature in Fahrenheit                   <
>     DP     - Dew Point in Fahrenheit                     <
>     RH     - Relative Humidity in Percent                <
>     WIND   - Direction (from) and Speed in MPH           <
>     PRES   - Mean Sea Level Pressure (inches of Hg)      <
>     WCI    - Wind Chill Index                            <
>     VSB    - Visibility in Miles                         <
>     HX     - Heat Index                                  <
>     TC     - Temperature in Celsius                      <
>     VRB    - Varibale Wind Direction                     <
>                                                          <
>>>>>>>>>>>>>>>>>>>>>>>>>>>> KEY <<<<<<<<<<<<<<<<<<<<<<<<<<<




USA.gov is the U.S. government's official web portal to all federal, state and local government web resources and services.